Regional Weather Roundup
Issued by NWS

Home | Current Version | Previous Version | Graphics & Text | Print | Product List | Glossary On
Versions: 1 2 3 4 5 6 7 8 9 10 11 12 13 14 15 16 17 18 19 20 21 22 23 24 25 26 27
000
ASUS45 KSLC 201410
RWRUT

UTAH REGIONAL WEATHER ROUNDUP
NATIONAL WEATHER SERVICE SALT LAKE CITY UT
800 AM MDT SUN AUG 20 2017

UTZ001>011-023>025-201500-

NORTHERN UTAH

CITY           SKY/WX    TMP DP  RH WIND       PRES   REMARKS
BRIGHAM CITY   SUNNY     62  37  38 NW6       30.05R
HILL AFB       SUNNY     67  37  33 E15       30.07R
LOGAN          SUNNY     58  44  60 CALM      30.08R
OGDEN          SUNNY     67  39  35 S6        30.04R
SALT LAKE CITY MOSUNNY   73  46  38 S8        30.03R
TOOELE VALLEY  SUNNY     70  41  35 S3        30.06R
WENDOVER       MOSUNNY   71  35  26 W3        30.05R
HEBER CITY     MOSUNNY   55  43  62 CALM      30.16R
WEST JORDAN    SUNNY     72  49  44 S8        30.07R

$$

UTZ011>015-024>027-201500-

CENTRAL/NORTHEAST UTAH

CITY           SKY/WX    TMP DP  RH WIND       PRES   REMARKS
PROVO AIRPORT  SUNNY     66  44  45 E5        30.09R
MOAB/CANYONLAN SUNNY     69  39  33 CALM      30.06R
DELTA          SUNNY     64  32  29 S7        30.09R
PRICE          SUNNY     66  40  38 NE7       30.16R
ROOSEVELT      SUNNY     59  45  58 CALM      30.15S
VERNAL         CLOUDY    59  44  57 W3        30.14R

$$

UTZ013>016-019>022-027-201500-

SOUTHERN UTAH

CITY           SKY/WX    TMP DP  RH WIND       PRES   REMARKS
BRYCE CANYON   LGT RAIN  57  46  66 N20G25    30.32S
CEDAR CITY     MOSUNNY   61  42  49 CALM      30.17R
MILFORD        SUNNY     60  36  40 S8        30.13R
ST GEORGE      MOSUNNY   73  46  38 E6        30.01R
HANKSVILLE     MOSUNNY   68  36  30 CALM      30.09R
BLANDING       MOSUNNY   68  39  34 N3        30.23R

$$

REGIONAL REPORTS     COLORADO/ARIZONA

CITY           SKY/WX    TMP DP  RH WIND       PRES   REMARKS
CRAIG, CO      SUNNY     53  38  56 CALM      30.22R
GRAND JUNCTION SUNNY     67  40  37 SE13      30.11R
RIFLE, CO      SUNNY     57  41  55 CALM      30.19R
MONTROSE, CO   SUNNY     60  41  49 SW5       30.20R
CORTEZ, CO     SUNNY     60  42  51 CALM      30.17R
COLORADO CITY    N/A     59  46  63 E5        30.16R
PAGE, AZ       PTSUNNY   75  39  27 S3        30.06R
GRAND CANYON   PTSUNNY   55  41  59 CALM      30.27R
KINGMAN, AZ    SUNNY     76  46  34 S3        30.03R
FLAGSTAFF, AZ  CLOUDY    59  48  67 SW3       30.30R

$$

REGIONAL REPORTS    NEVADA/IDAHO/WYOMING

CITY           SKY/WX    TMP DP  RH WIND       PRES   REMARKS
LAS VEGAS, NV  MOSUNNY   83  47  28 CALM      29.90R
ELY, NY        SUNNY     51  31  46 S13       30.19R
ELKO, NV       PTSUNNY   57  35  43 CALM      30.12R
POCATELLO, ID  SUNNY     62  39  42 SW10      30.11R
BURLEY, ID     SUNNY     59  37  44 W6        30.09R
FORT BRIDGER,    N/A     64  34  33 CALM      30.25S
EVANSTON, WY   CLOUDY    59  37  44 S7        30.24R
ROCK SPRINGS,  SUNNY     58  35  42 N3        30.22R

$$




USA.gov is the U.S. government's official web portal to all federal, state and local government web resources and services.